[[{"header":{"parameterUnit":"m.s-1","parameterCategory":1,"la1":30.2991,"la2":30.254,"lo1":-89.0895,"lo2":-89.0444,"dy":0.0017,"dx":0.0017,"nx":28,"ny":28,"refTime":"2025-07-11T21:00:00:Z","depth":0,"parameterNumber":2,"parameterNumberName":"U-component_of_WINDS"},"data":[0,0,0,0,0,0,0,0,0,0,0,0,0,0,0,0,0,0,0,0,0,0,0,0,0,0,0,0,0,0,0,0,0,0,0,0,0,0,0,0,0,0,0,0,0,0,0,0,0,0,0,0,0,0,0,0,0,0,4.4836,4.4837,0,4.4991,4.4993,4.4994,4.4918,4.4914,4.491,4.4906,4.5068,4.5076,4.5084,0,0,0,0,0,0,0,0,0,0,0,0,0,4.4474,4.4481,4.4836,4.4838,4.4839,4.4991,4.4993,4.4995,4.4919,4.4914,4.4909,4.4904,4.5065,4.5075,4.5084,0,0,0,0,0,0,0,0,0,0,0,0,0,4.463,4.4483,4.4835,4.482,4.482,4.499,4.4993,4.4995,4.492,4.4914,4.4908,4.4902,4.5062,4.5074,4.5086,4.5281,0,0,4.5123,4.5128,0,0,0,0,0,0,0,0,4.4621,4.4644,4.482,4.4821,4.4821,4.4929,4.4924,4.5091,4.4921,4.4882,4.4906,4.4899,4.5027,4.5041,4.5084,4.5289,4.5296,4.5124,4.5131,4.5136,4.514,0,0,0,0,0,0,0,4.4611,4.4636,4.4897,4.4823,4.4824,4.4805,4.482,4.4956,4.4986,4.4885,4.488,4.4899,4.5026,4.5072,4.5087,4.5298,4.5123,4.5134,4.5142,4.5146,4.5667,4.5673,0,0,0,0,0,0,4.46,4.4628,4.4892,4.4902,4.4704,4.4816,4.4834,4.49,4.4985,4.4992,4.4904,4.4895,4.5055,4.5073,4.5092,4.5323,4.5136,4.5148,4.5154,4.5661,4.5669,4.5676,0,0,0,0,0,0,4.4593,4.4624,4.4886,4.4763,4.4795,4.4829,4.4905,4.4907,4.4953,4.4999,4.5004,4.4946,4.5051,4.5075,4.5234,4.5328,4.5153,4.5164,4.5653,4.5663,4.5672,4.5789,0,0,0,0,0,0,4.4583,4.4622,4.4697,4.4766,4.4802,4.5025,4.4911,4.4914,4.4974,4.4963,4.5039,4.5046,4.5048,4.5216,4.5246,4.5341,4.5173,4.5644,4.5657,4.5669,4.5777,4.5802,4.5823,0,0,0,0,0,4.457,4.4726,4.4701,4.4734,4.4896,4.5031,4.5051,4.5049,4.4982,4.5057,4.5086,4.5044,4.5313,4.5233,4.5266,4.5367,4.5639,4.5654,4.5668,4.5767,4.5797,4.5823,0,0,0,0,0,0,4.4669,4.4734,4.4708,4.489,4.4955,4.5017,4.5112,4.5082,4.5168,4.5155,4.5149,4.5167,4.533,4.5365,4.5274,4.5558,4.5465,4.5488,4.5529,4.5558,4.5581,4.5568,4.5183,0,0,0,0,0,4.4712,4.4815,4.4867,4.5023,4.5056,4.5079,4.5137,4.5129,4.5197,4.5224,4.5265,4.5332,4.5431,4.5497,4.5592,4.5782,4.5796,4.5868,4.5891,4.5909,4.5928,4.6027,4.6058,4.5724,4.5724,4.5724,0,0,4.4802,4.485,4.4916,4.5043,4.5093,4.5199,4.5102,4.522,4.5298,4.5242,4.5393,4.5425,4.55,4.5674,4.5753,4.5708,4.6023,4.5928,4.5943,4.5951,4.6045,4.6077,4.6105,4.5734,4.5733,4.5731,0,0,4.5019,4.5067,4.52,4.5251,4.5326,4.5339,4.5371,4.5438,4.5456,4.5607,4.5566,4.566,4.5832,4.5885,4.5935,4.617,4.6133,4.6201,4.6321,4.6417,4.6444,4.6467,4.6547,4.6576,4.622,4.622,4.622,0,4.5121,4.5279,4.5273,4.5392,4.5448,4.5401,4.5534,4.5584,4.5687,4.5727,4.5675,4.5887,4.5935,4.6118,4.6175,4.6219,4.6253,4.6191,4.644,4.6464,4.6485,4.6561,4.6592,4.6228,4.6227,4.6226,4.6225,0,4.5399,4.551,4.5608,4.5705,4.5773,4.59,4.5911,4.5981,4.5967,4.5986,4.6138,4.6193,4.6295,4.6339,4.6328,4.6521,4.649,4.644,4.6346,4.6524,4.6596,4.6625,4.6238,4.6236,4.6233,4.6231,0,0,4.5684,4.5774,4.581,4.5852,4.593,4.6015,4.6138,4.6237,4.6295,4.6367,4.6469,4.6614,4.6567,4.6623,4.6618,4.6703,4.6881,4.6642,4.6643,4.6681,4.7092,4.7127,4.7161,4.6858,4.6863,4.6868,4.7085,0,4.5904,4.6118,4.6114,4.6313,4.6412,4.6368,4.6474,4.6534,4.6554,4.6642,4.6665,4.6766,4.6698,4.6731,4.6814,4.6842,4.6963,4.6826,4.695,4.6955,4.693,4.7199,4.7238,4.744,4.7113,4.7118,4.7121,0,4.6189,4.6267,4.6475,4.6535,4.6576,4.6673,4.6761,4.6846,4.6911,4.692,4.6982,4.6962,4.7085,4.699,4.7159,4.7066,4.7117,4.7138,4.7146,4.7155,4.7047,4.7213,4.7505,4.7534,4.7166,4.7162,4.7159,0,4.637,4.6529,4.6672,4.671,4.6785,4.6852,4.6887,4.6946,4.7005,4.7082,4.7119,4.7212,4.7261,4.7333,4.7337,4.7268,4.7507,4.7413,4.7516,4.7516,4.7566,4.7563,4.7867,4.7605,4.7604,4.7604,4.7603,0,4.6615,4.6743,4.6754,4.6842,4.6984,4.6978,4.7118,4.7146,4.7199,4.7291,4.726,4.7347,4.7349,4.7438,4.7443,4.758,4.7604,4.7613,4.7612,4.7614,4.7612,4.7645,4.763,4.7612,4.761,4.7608,4.7607,0,4.6841,4.6854,4.7007,4.7064,4.7081,4.7182,4.7231,4.7314,4.7331,4.7447,4.7474,4.7501,4.7604,4.7616,4.7737,4.7739,4.7903,4.789,4.7881,4.7877,4.7978,4.7967,4.8312,4.8356,4.8068,4.8071,4.8073,0,4.6994,4.7091,4.7157,4.7216,4.7253,4.7349,4.7407,4.7405,4.7467,4.7547,4.762,4.7719,4.7798,4.7964,4.7994,4.8085,4.8071,4.8185,4.8084,4.8082,4.8068,4.8061,4.8069,4.8204,4.8207,4.821,4.8212,0,4.7264,4.7265,4.735,4.7437,4.7506,4.7575,4.764,4.769,4.7695,4.7767,4.787,4.7931,4.8052,4.815,4.8239,4.8274,4.8244,4.8244,4.8272,4.8273,4.8262,4.8265,4.793,4.8235,4.8233,4.8231,4.823,4.8229,4.7456,4.7538,4.7597,4.7691,4.7739,4.7799,4.7879,4.7904,4.799,4.8087,4.8081,4.8194,4.8254,4.837,4.8412,4.85,4.8462,4.8503,4.8513,4.8523,4.8531,4.8251,4.8517,4.8516,4.8515,4.8515,4.8514,0,4.7721,4.7755,4.7843,4.7932,4.8006,4.797,4.8039,4.8103,4.8202,4.826,4.8337,4.8454,4.8548,4.8585,4.8676,4.8739,4.8728,4.8763,4.8757,4.8765,4.8562,4.8526,4.8771,4.8771,4.8771,4.8771,4.8771,4.8771,4.7867,4.8003,4.801,4.8169,4.8203,4.8312,4.8353,4.8408,4.8454,4.8585,4.8662,4.8685,4.8734,4.8828,4.8912,4.892,4.8953,4.8994,4.8996,4.8806,4.878,4.8755,4.8721,4.9003,4.9003,4.9191,4.9193,4.9195]},{"header":{"parameterUnit":"m.s-1","parameterCategory":1,"la1":30.2991,"la2":30.254,"lo1":-89.0895,"lo2":-89.0444,"dy":0.0017,"dx":0.0017,"nx":28,"ny":28,"refTime":"2025-07-11T21:00:00:Z","depth":0,"parameterNumber":3,"parameterNumberName":"V-component_of_WINDS"},"data":[0,0,0,0,0,0,0,0,0,0,0,0,0,0,0,0,0,0,0,0,0,0,0,0,0,0,0,0,0,0,0,0,0,0,0,0,0,0,0,0,0,0,0,0,0,0,0,0,0,0,0,0,0,0,0,0,0,0,1.3799,1.3799,0,1.3821,1.3821,1.3821,1.3774,1.3772,1.3771,1.3769,1.3794,1.3796,1.3798,0,0,0,0,0,0,0,0,0,0,0,0,0,1.3717,1.3718,1.3799,1.3799,1.3799,1.3821,1.3821,1.3821,1.3774,1.3772,1.377,1.3769,1.3793,1.3796,1.3798,0,0,0,0,0,0,0,0,0,0,0,0,0,1.3747,1.3719,1.3799,1.3778,1.3777,1.3821,1.3821,1.3821,1.3775,1.3772,1.377,1.3768,1.3793,1.3796,1.3799,1.3864,0,0,1.3808,1.381,0,0,0,0,0,0,0,0,1.3745,1.375,1.3781,1.378,1.3778,1.3792,1.3801,1.3836,1.3775,1.3775,1.3769,1.3767,1.3796,1.3798,1.3807,1.3865,1.3866,1.3809,1.3811,1.3812,1.3813,0,0,0,0,0,0,0,1.3743,1.3749,1.3807,1.3781,1.378,1.3768,1.377,1.3807,1.3798,1.3775,1.3772,1.3775,1.3794,1.3805,1.3808,1.3867,1.3809,1.3811,1.3813,1.3815,1.3977,1.3979,0,0,0,0,0,0,1.3744,1.3747,1.3807,1.3808,1.3756,1.3772,1.3774,1.379,1.3798,1.3797,1.3777,1.3773,1.38,1.3804,1.3808,1.3884,1.3812,1.3815,1.3817,1.3975,1.3978,1.398,0,0,0,0,0,0,1.3742,1.3749,1.3806,1.3777,1.3783,1.3775,1.3794,1.3792,1.3802,1.3799,1.3797,1.3789,1.3799,1.3804,1.385,1.3884,1.3816,1.3819,1.3972,1.3976,1.3979,1.4037,0,0,0,0,0,0,1.374,1.3749,1.3774,1.3778,1.3785,1.3847,1.3796,1.3794,1.3807,1.3802,1.381,1.3809,1.3797,1.3846,1.3853,1.3888,1.3822,1.3969,1.3973,1.3978,1.4032,1.4042,1.4051,0,0,0,0,0,1.3737,1.379,1.3775,1.3783,1.3816,1.3849,1.3853,1.3838,1.381,1.3835,1.3832,1.3809,1.3879,1.3851,1.3859,1.3895,1.3966,1.3972,1.3977,1.4028,1.404,1.4051,0,0,0,0,0,0,1.3792,1.3791,1.3774,1.383,1.384,1.3841,1.3872,1.3852,1.3871,1.3865,1.3846,1.3849,1.3898,1.3901,1.3869,1.3957,1.3918,1.3926,1.3954,1.3965,1.3975,1.3973,1.3824,0,0,0,0,0,1.3811,1.3838,1.3835,1.3885,1.389,1.388,1.3895,1.3882,1.3892,1.3896,1.3897,1.3908,1.3932,1.3949,1.3971,1.4032,1.4032,1.406,1.407,1.4078,1.4084,1.4115,1.4127,1.3998,1.3998,1.3998,0,0,1.385,1.3852,1.3871,1.3896,1.3902,1.393,1.3884,1.3917,1.3938,1.3901,1.3944,1.3945,1.3956,1.4009,1.4033,1.4013,1.412,1.4085,1.4091,1.4093,1.4122,1.4134,1.4145,1.4002,1.4001,1.4001,0,0,1.3935,1.394,1.3981,1.3987,1.3997,1.3989,1.3999,1.4003,1.4002,1.4044,1.4017,1.4041,1.4084,1.4092,1.4102,1.4188,1.4166,1.4196,1.4246,1.4276,1.4286,1.4295,1.4324,1.4335,1.4202,1.4203,1.4203,0,1.3983,1.4024,1.4005,1.4038,1.405,1.4016,1.4057,1.4065,1.4082,1.409,1.4068,1.4119,1.4124,1.4178,1.4199,1.4208,1.4218,1.4195,1.4286,1.4294,1.4302,1.4331,1.4342,1.4206,1.4206,1.4205,1.4205,0,1.4081,1.411,1.4142,1.4157,1.4172,1.421,1.4196,1.4214,1.4199,1.4194,1.4237,1.4241,1.4263,1.4275,1.4261,1.4326,1.4313,1.4289,1.4249,1.4319,1.4345,1.4355,1.4211,1.421,1.4209,1.4208,0,0,1.4204,1.4206,1.4218,1.4224,1.423,1.4252,1.4288,1.4308,1.4322,1.4335,1.4363,1.4399,1.4375,1.4387,1.4374,1.44,1.4466,1.4372,1.4372,1.4389,1.4536,1.4555,1.4568,1.4451,1.4453,1.4455,1.4535,0,1.4288,1.4347,1.433,1.439,1.4416,1.4383,1.4413,1.4421,1.4416,1.4438,1.4433,1.4458,1.4426,1.4432,1.4456,1.4453,1.4496,1.4447,1.4478,1.4479,1.4476,1.4582,1.4602,1.4677,1.4545,1.4547,1.4548,0,1.4394,1.4408,1.447,1.447,1.448,1.4508,1.4524,1.4545,1.4552,1.4547,1.4558,1.4539,1.4573,1.4533,1.4579,1.4547,1.4558,1.4558,1.456,1.4563,1.4518,1.4587,1.4701,1.4712,1.4564,1.4563,1.4562,0,1.4476,1.4511,1.4552,1.4558,1.4559,1.4579,1.4581,1.4586,1.4598,1.4612,1.462,1.4638,1.4649,1.4663,1.4649,1.4621,1.4697,1.4656,1.4694,1.4694,1.4712,1.4711,1.483,1.472,1.472,1.4719,1.4719,0,1.4571,1.4611,1.4588,1.4614,1.4656,1.4636,1.4678,1.4676,1.468,1.4704,1.4678,1.4701,1.4681,1.4703,1.4692,1.4732,1.4737,1.4733,1.473,1.4736,1.4736,1.4743,1.4737,1.4722,1.4722,1.4721,1.4721,0,1.4671,1.4658,1.47,1.4697,1.4697,1.4729,1.4726,1.4749,1.4742,1.4773,1.4779,1.4768,1.4792,1.4779,1.4804,1.4797,1.4847,1.4837,1.4845,1.4842,1.488,1.4877,1.5008,1.5023,1.4904,1.4905,1.4906,0,1.4733,1.4761,1.4761,1.4774,1.4777,1.48,1.4812,1.4792,1.4806,1.4815,1.4837,1.4858,1.4874,1.4913,1.4907,1.4926,1.4916,1.496,1.4918,1.4923,1.4916,1.4914,1.4916,1.4969,1.497,1.4971,1.4972,0,1.4843,1.4834,1.4852,1.4867,1.4882,1.4893,1.4902,1.4915,1.4895,1.4912,1.4935,1.4947,1.4971,1.4992,1.5008,1.5009,1.4988,1.4985,1.4995,1.5001,1.5004,1.5002,1.4867,1.4983,1.4982,1.4981,1.498,1.498,1.4925,1.4949,1.4951,1.4971,1.4975,1.4984,1.5005,1.4999,1.5018,1.5035,1.5023,1.505,1.5054,1.5072,1.5077,1.5098,1.508,1.5094,1.5098,1.5101,1.5106,1.5,1.5101,1.51,1.51,1.51,1.5099,0,1.5034,1.5033,1.5052,1.5064,1.508,1.5056,1.5064,1.5079,1.5103,1.5108,1.5124,1.515,1.5169,1.5164,1.5182,1.5199,1.519,1.5205,1.5203,1.5204,1.5121,1.5111,1.5212,1.5212,1.5212,1.5212,1.5212,1.5212,1.5092,1.513,1.5121,1.516,1.5159,1.5185,1.5191,1.5199,1.5203,1.5232,1.5248,1.5244,1.5245,1.5262,1.5279,1.5277,1.5285,1.5303,1.5298,1.5221,1.521,1.5199,1.5189,1.5305,1.5305,1.5378,1.5379,1.5379]}]]